User: anonymous   Login
Location: Vancouver
(49.2500°N, 123.1330°W)
Time: 00:01:07
(UTC-07:00)
Language:

Cosmos 1864 Rocket - Orbit

View from above orbital plane
View from above orbital plane
View from above satellite
View from above satellite

Ground track
Ground track

The orbit data is extracted from the following two-line orbital elements,

1 18161U 87057B   16273.61402416 +.00000167 +00000-0 +15369-3 0  9998
2 18161 082.9307 265.8357 0030338 325.1531 172.8246 13.76957432448105
Epoch (UTC): 29 September 2016 14:44:11
Eccentricity: 0.0030338
inclination: 82.9307°
perigee height: 952 km
apogee height: 997 km
right ascension of ascending node: 265.8357°
argument of perigee: 325.1531°
revolutions per day: 13.76957432
mean anomaly at epoch: 172.8246°
orbit number at epoch: 44810

The dashed part of the orbit path shows where the satellite is in the earth's shadow,  

DLR